Chehalis, WA

12:50 PM PST on February 13, 2016 (GMT -0800)
Chehalis-Centralia

Weather History for KCLS - June, 2013

Change the Weather History Date:

Tuesday, June 4, 2013

  Actual Average (KOLM) Record (KOLM)
Temperature  
Mean Temperature 62 °F 57 °F  
Max Temperature 80 °F 69 °F 92 °F (1978)
Min Temperature 44 °F 46 °F 33 °F (1991)
Degree Days  
Heating Degree Days 3 8  
Month to date heating degree days 32  
Since 1 June heating degree days 32  
Since 1 July heating degree days 5228  
Cooling Degree Days 0 0  
Month to date cooling degree days 0  
Year to date cooling degree days 3  
Since 1 June cooling degree days 0  
Growing Degree Days 12 (Base 50)    
Moisture  
Dew Point 51 °F    
Average Humidity 70    
Maximum Humidity 100    
Minimum Humidity 37    
Precipitation  
Precipitation 0.00 in 0.07 in 0.74 in (1974)
Month to date precipitation 0.29  
Year to date precipitation 24.56  
Sea Level Pressure  
Sea Level Pressure 30.10 in    
Wind  
Wind Speed 2 mph (North)    
Max Wind Speed 10 mph    
Max Gust Speed -    
Visibility 9 miles    
Events Fog    
T = Trace of Precipitation, MM = Missing Value Source: NWS Daily Summary

Daily Weather History Graph

Daily Weather History Graph

Search for Another Location

Airport or City:

Trip Planner

Search our weather history database for the weather conditions in past years. The results will help you decide how hot, cold, wet, or windy it might be!

Date:

Astronomy

Jun. 04, 2013 Rise Set
Actual Time 5:20 AM PDT 9:00 PM PDT
Civil Twilight 4:41 AM PDT 9:39 PM PDT
Nautical Twilight 3:50 AM PDT 10:31 PM PDT
Astronomical Twilight 2:38 AM PDT 11:43 PM PDT
Moon 3:05 AM PDT (6/4) 5:25 PM PDT (6/4)
Length of Visible Light 16h 57m
Length of Day
15h 40m
Waning Crescent, 13% of the Moon is Illuminated
Jun 4
Waning Crescent
Jun 8
New
Jun 16
First Quarter
Jun 23
Full
Jun 29
Last Quarter

Hourly Weather History & Observations

Time (PDT) Temp. Heat Index Dew Point Humidity Pressure Visibility Wind Dir Wind Speed Gust Speed Precip Events Conditions
12:15 AM 48.2 °F - 46.4 °F 93% 30.14 in 10.0 mi Calm Calm - N/A   Clear
12:35 AM 48.2 °F - 46.4 °F 93% 30.14 in 7.0 mi Calm Calm - N/A   Clear
12:55 AM 48.2 °F - 46.4 °F 93% 30.13 in 10.0 mi Calm Calm - N/A   Clear
1:15 AM 46.4 °F - 46.4 °F 100% 30.13 in 10.0 mi Calm Calm - N/A   Clear
1:35 AM 46.4 °F - 46.4 °F 100% 30.14 in 10.0 mi Calm Calm - N/A   Clear
1:55 AM 46.4 °F - 46.4 °F 100% 30.13 in 10.0 mi Calm Calm - N/A   Clear
2:15 AM 46.4 °F - 46.4 °F 100% 30.13 in 10.0 mi Calm Calm - N/A   Clear
2:35 AM 46.4 °F - 44.6 °F 93% 30.13 in 10.0 mi Calm Calm - N/A   Clear
2:55 AM 46.4 °F - 44.6 °F 93% 30.14 in 5.0 mi Calm Calm - N/A   Clear
3:15 AM 46.4 °F - 44.6 °F 93% 30.14 in 10.0 mi Calm Calm - N/A   Clear
3:35 AM 44.6 °F - 44.6 °F 100% 30.14 in 8.0 mi Calm Calm - N/A   Clear
3:55 AM 44.6 °F - 44.6 °F 100% 30.14 in 7.0 mi Calm Calm - N/A   Clear
4:15 AM 44.6 °F - 44.6 °F 100% 30.14 in 10.0 mi Calm Calm - N/A   Clear
4:35 AM 44.6 °F - 44.6 °F 100% 30.13 in 5.0 mi Calm Calm - N/A   Clear
4:55 AM 44.6 °F - 44.6 °F 100% 30.14 in 0.5 mi Calm Calm - N/A Fog Fog
5:15 AM 44.6 °F - 44.6 °F 100% 30.14 in 9.0 mi Calm Calm - N/A   Clear
5:35 AM 44.6 °F - 42.8 °F 93% 30.14 in 5.0 mi Calm Calm - N/A   Clear
5:55 AM 44.6 °F - 44.6 °F 100% 30.14 in 3.0 mi Calm Calm - N/A   Partly Cloudy
6:15 AM 44.6 °F - 44.6 °F 100% 30.14 in 8.0 mi Calm Calm - N/A   Scattered Clouds
6:35 AM 44.6 °F - 44.6 °F 100% 30.15 in 7.0 mi Calm Calm - N/A   Mostly Cloudy
6:55 AM 44.6 °F - 44.6 °F 100% 30.15 in 0.5 mi Calm Calm - N/A Fog Fog
7:15 AM 46.4 °F - 46.4 °F 100% 30.15 in 0.2 mi Calm Calm - N/A Fog Fog
7:35 AM 46.4 °F - 46.4 °F 100% 30.15 in 0.2 mi Calm Calm - N/A Fog Fog
7:55 AM 48.2 °F - 46.4 °F 93% 30.15 in 1.5 mi Calm Calm - N/A   Overcast
8:15 AM 50.0 °F - 48.2 °F 94% 30.15 in 10.0 mi Calm Calm - N/A   Scattered Clouds
8:35 AM 53.6 °F - 50.0 °F 88% 30.15 in 10.0 mi Calm Calm - N/A   Clear
8:55 AM 55.4 °F - 50.0 °F 82% 30.16 in 10.0 mi NNE 6.9 mph - N/A   Clear
9:15 AM 57.2 °F - 51.8 °F 82% 30.16 in 10.0 mi North 4.6 mph - N/A   Clear
9:35 AM 59.0 °F - 51.8 °F 77% 30.15 in 10.0 mi North 4.6 mph - N/A   Clear
9:55 AM 60.8 °F - 53.6 °F 77% 30.15 in 10.0 mi North 4.6 mph - N/A   Clear
10:15 AM 64.4 °F - 53.6 °F 68% 30.14 in 10.0 mi North 6.9 mph - N/A   Clear
10:35 AM 64.4 °F - 53.6 °F 68% 30.14 in 7.0 mi NNW 9.2 mph - N/A   Clear
10:55 AM 66.2 °F - 55.4 °F 68% 30.14 in 10.0 mi NNW 6.9 mph - N/A   Clear
11:15 AM 68.0 °F - 53.6 °F 60% 30.13 in 5.0 mi North 6.9 mph - N/A   Haze
11:35 AM 69.8 °F - 53.6 °F 56% 30.13 in 9.0 mi North 4.6 mph - N/A   Clear
11:55 AM 71.6 °F - 51.8 °F 50% 30.13 in 10.0 mi NNE 9.2 mph - N/A   Clear
12:15 PM 71.6 °F - 53.6 °F 53% 30.12 in 7.0 mi North 8.1 mph - N/A   Clear
12:35 PM 73.4 °F - 53.6 °F 50% 30.11 in 10.0 mi NNW 6.9 mph - N/A   Clear
12:55 PM 73.4 °F - 55.4 °F 53% 30.11 in 10.0 mi North 5.8 mph - N/A   Clear
1:15 PM 75.2 °F - 53.6 °F 47% 30.10 in 10.0 mi NNW 9.2 mph - N/A   Clear
1:35 PM 75.2 °F - 53.6 °F 47% 30.10 in 10.0 mi North 5.8 mph - N/A   Clear
1:55 PM 75.2 °F - 53.6 °F 47% 30.10 in 10.0 mi North 5.8 mph - N/A   Clear
2:15 PM 77.0 °F - 53.6 °F 44% 30.10 in 10.0 mi North 8.1 mph - N/A   Clear
2:35 PM 77.0 °F - 53.6 °F 44% 30.09 in 10.0 mi NNW 9.2 mph - N/A   Clear
2:55 PM 77.0 °F - 53.6 °F 44% 30.09 in 10.0 mi NNW 6.9 mph - N/A   Clear
3:15 PM 78.8 °F - 53.6 °F 42% 30.08 in 10.0 mi NNW 3.5 mph - N/A   Clear
3:35 PM 78.8 °F - 53.6 °F 42% 30.07 in 10.0 mi NNE 5.8 mph - N/A   Clear
3:55 PM 78.8 °F - 53.6 °F 42% 30.07 in 10.0 mi NNW 8.1 mph - N/A   Clear
4:15 PM 80.6 °F - 51.8 °F 37% 30.06 in 10.0 mi North 6.9 mph - N/A   Clear
4:35 PM 80.6 °F 80.3 °F 53.6 °F 39% 30.06 in 10.0 mi NE 10.4 mph - N/A   Clear
4:55 PM 80.6 °F 80.3 °F 53.6 °F 39% 30.05 in 10.0 mi North 4.6 mph - N/A   Clear
5:15 PM 80.6 °F 80.3 °F 53.6 °F 39% 30.05 in 10.0 mi North 4.6 mph - N/A   Clear
5:35 PM 80.6 °F - 51.8 °F 37% 30.04 in 10.0 mi North 5.8 mph - N/A   Clear
5:55 PM 80.6 °F - 51.8 °F 37% 30.04 in 10.0 mi NNW 4.6 mph - N/A   Clear
6:15 PM 80.6 °F 80.3 °F 53.6 °F 39% 30.03 in 10.0 mi North 3.5 mph - N/A   Clear
6:35 PM 80.6 °F - 51.8 °F 37% 30.03 in 10.0 mi NNE 5.8 mph - N/A   Clear
6:55 PM 80.6 °F 80.5 °F 55.4 °F 42% 30.03 in 10.0 mi NE 5.8 mph - N/A   Clear
7:15 PM 78.8 °F - 53.6 °F 42% 30.03 in 10.0 mi North 4.6 mph - N/A   Clear
7:35 PM 78.8 °F - 55.4 °F 44% 30.03 in 10.0 mi NNW 6.9 mph - N/A   Clear
7:55 PM 77.0 °F - 55.4 °F 47% 30.03 in 10.0 mi NNW 5.8 mph - N/A   Clear
8:15 PM 75.2 °F - 55.4 °F 50% 30.03 in 10.0 mi NNW 6.9 mph - N/A   Clear
8:35 PM 73.4 °F - 55.4 °F 53% 30.03 in 10.0 mi Calm Calm - N/A   Clear
8:55 PM 69.8 °F - 55.4 °F 60% 30.04 in 10.0 mi Calm Calm - N/A   Clear
9:15 PM 68.0 °F - 53.6 °F 60% 30.04 in 10.0 mi SW 4.6 mph - N/A   Clear
9:35 PM 68.0 °F - 53.6 °F 60% 30.05 in 10.0 mi Calm Calm - N/A   Clear
9:55 PM 66.2 °F - 50.0 °F 56% 30.06 in 10.0 mi WSW 3.5 mph - N/A   Clear
10:15 PM 66.2 °F - 51.8 °F 60% 30.06 in 10.0 mi Calm Calm - N/A   Clear
10:35 PM 62.6 °F - 53.6 °F 72% 30.06 in 10.0 mi WSW 3.5 mph - N/A   Clear
10:55 PM 60.8 °F - 51.8 °F 72% 30.06 in 10.0 mi Calm Calm - N/A   Clear
11:15 PM 59.0 °F - 53.6 °F 82% 30.06 in 10.0 mi Calm Calm - N/A   Clear
11:35 PM 57.2 °F - 53.6 °F 88% 30.07 in 10.0 mi Calm Calm - N/A   Clear
11:55 PM 57.2 °F - 53.6 °F 88% 30.07 in 10.0 mi Calm Calm - N/A   Clear